KC7O Weather Reports


Display with metric or nautical units.
time (UTC)temp
F
wind
direction
speed
MPH
gust
MPH
rain 1hr
in
rain 24hr
in
rain mn
in
humidity
%
barometer
mb
20260508072852 58 144 0.0 0.0 0.00 0.00 0.00 88 1014.5
20260508072357 58 144 0.0 0.0 0.00 0.00 0.00 88 1014.5
20260508071900 58 144 0.0 0.0 0.00 0.00 0.00 88 1014.6
20260508071404 58 144 0.0 0.0 0.00 0.00 0.00 88 1014.6
20260508070850 58 144 0.0 0.0 0.00 0.00 0.00 87 1014.5
20260508070357 58 144 0.0 0.0 0.00 0.00 0.00 87 1014.5
20260508065901 58 144 0.0 0.0 0.00 0.00 0.00 87 1014.5
20260508065407 58 144 0.0 0.0 0.00 0.00 0.00 86 1014.5
20260508064853 59 144 0.0 0.0 0.00 0.00 0.00 86 1014.5
20260508064400 59 144 0.0 0.0 0.00 0.00 0.00 86 1014.4
20260508063904 59 144 0.0 0.0 0.00 0.00 0.00 86 1014.4
20260508063414 59 144 0.0 0.0 0.00 0.00 0.00 86 1014.4
20260508062919 59 144 0.0 0.0 0.00 0.00 0.00 85 1014.3
20260508062402 59 144 0.0 0.0 0.00 0.00 0.00 85 1014.3
20260508061908 60 144 0.0 0.0 0.00 0.00 0.00 84 1014.3
20260508061412 60 144 0.0 0.0 0.00 0.00 0.00 84 1014.3
20260508060856 60 144 0.0 0.0 0.00 0.00 0.00 84 1014.2
20260508060359 60 144 0.0 0.0 0.00 0.00 0.00 84 1014.3
20260508055925 60 144 0.0 0.0 0.00 0.00 0.00 83 1014.3
20260508055350 60 144 0.0 0.0 0.00 0.00 0.00 83 1014.3
20260508054915 60 144 0.0 0.0 0.00 0.00 0.00 82 1014.4
20260508054417 61 144 0.0 0.0 0.00 0.00 0.00 82 1014.4
20260508053901 61 144 0.0 0.0 0.00 0.00 0.00 82 1014.3
20260508053407 61 144 0.0 0.0 0.00 0.00 0.00 81 1014.4
20260508052852 61 144 0.0 0.0 0.00 0.00 0.00 81 1014.4
20260508052354 62 144 0.0 1.0 0.00 0.00 0.00 80 1014.3
20260508051858 62 144 0.0 1.0 0.00 0.00 0.00 80 1014.3
20260508051403 62 144 0.0 0.0 0.00 0.00 0.00 80 1014.4
20260508050853 62 144 0.0 0.0 0.00 0.00 0.00 79 1014.4
20260508050358 62 144 0.0 0.0 0.00 0.00 0.00 79 1014.3
20260508045903 63 144 0.0 0.0 0.00 0.00 0.00 78 1014.3
20260508045409 63 144 0.0 0.0 0.00 0.00 0.00 78 1014.3
20260508044854 63 144 0.0 0.0 0.00 0.00 0.00 77 1014.3
20260508044419 63 144 0.0 0.0 0.00 0.00 0.00 77 1014.2
20260508043904 63 144 0.0 0.0 0.00 0.00 0.00 77 1014.1
20260508043409 63 146 0.0 0.0 0.00 0.00 0.00 76 1014.1
20260508042853 64 150 0.0 0.0 0.00 0.00 0.00 75 1014.0
20260508042358 64 150 0.0 0.0 0.00 0.00 0.00 75 1013.9
20260508041902 64 150 0.0 0.0 0.00 0.00 0.00 74 1013.9
20260508041407 64 150 0.0 0.0 0.00 0.00 0.00 74 1013.8
20260508040855 64 150 0.0 0.0 0.00 0.00 0.00 73 1013.8
20260508040400 65 150 0.0 0.0 0.00 0.00 0.00 73 1013.7
20260508035903 65 266 0.0 0.0 0.00 0.00 0.00 72 1013.5
20260508035349 65 266 0.0 0.0 0.00 0.00 0.00 71 1013.5
20260508034855 65 265 0.0 0.0 0.00 0.00 0.00 71 1013.4
20260508034414 65 265 0.0 0.0 0.00 0.00 0.00 70 1013.4
20260508033907 66 266 0.0 0.0 0.00 0.00 0.00 70 1013.3
20260508033356 66 266 0.0 0.0 0.00 0.00 0.00 70 1013.2
20260508032900 66 266 0.0 0.0 0.00 0.00 0.00 70 1013.1
20260508032403 66 266 0.0 0.0 0.00 0.00 0.00 70 1013.1
20260508031909 67 266 0.0 0.0 0.00 0.00 0.00 69 1013.0
20260508031355 67 266 0.0 1.0 0.00 0.00 0.00 69 1013.0
20260508030901 67 265 0.0 1.0 0.00 0.00 0.00 69 1013.0
20260508030350 67 266 0.0 1.0 0.00 0.00 0.00 69 1012.9
20260508025916 68 271 0.0 1.0 0.00 0.00 0.00 69 1012.8
20260508025400 68 153 0.0 1.0 0.00 0.00 0.00 69 1012.7
20260508024905 68 248 0.0 3.0 0.00 0.00 0.00 68 1012.6
20260508023901 69 158 0.0 3.0 0.00 0.00 0.00 67 1012.5
20260508023406 69 221 0.0 3.0 0.00 0.00 0.00 67 1012.4
20260508022910 70 168 1.0 3.0 0.00 0.00 0.00 66 1012.4
20260508022355 70 242 1.0 3.0 0.00 0.00 0.00 66 1012.3
20260508021858 70 223 0.0 3.0 0.00 0.00 0.00 66 1012.3
20260508021430 71 246 0.0 3.0 0.00 0.00 0.00 65 1012.2
20260508020856 71 150 1.0 3.0 0.00 0.00 0.00 65 1012.2
20260508020400 72 255 0.0 3.0 0.00 0.00 0.00 64 1012.2
20260508015906 72 233 1.0 4.0 0.00 0.00 0.00 63 1012.1
20260508015350 72 217 1.0 4.0 0.00 0.00 0.00 63 1011.9
20260508014858 73 175 1.0 4.0 0.00 0.00 0.00 62 1011.9
20260508013856 73 155 2.0 5.0 0.00 0.00 0.00 61 1012.0
20260508012857 74 200 2.0 5.0 0.00 0.00 0.00 60 1012.0
20260508012401 75 261 2.0 5.0 0.00 0.00 0.00 59 1012.0
20260508011926 75 265 3.0 6.0 0.00 0.00 0.00 59 1012.0
20260508011409 76 239 1.0 6.0 0.00 0.00 0.00 58 1012.0
20260508010901 76 240 2.0 4.0 0.00 0.00 0.00 58 1011.9
20260508010426 77 145 2.0 4.0 0.00 0.00 0.00 57 1011.9
20260508005852 77 236 1.0 5.0 0.00 0.00 0.00 57 1011.9
20260508005407 77 165 1.0 5.0 0.00 0.00 0.00 58 1011.9
20260508004853 77 253 2.0 4.0 0.00 0.00 0.00 57 1011.9
20260508004357 77 234 1.0 5.0 0.00 0.00 0.00 57 1011.8
20260508003903 77 194 1.0 5.0 0.00 0.00 0.00 57 1011.8
20260508003428 77 199 1.0 5.0 0.00 0.00 0.00 56 1011.8
20260508002851 77 158 2.0 4.0 0.00 0.00 0.00 57 1011.8
20260508002357 77 149 1.0 5.0 0.00 0.00 0.00 57 1011.8
20260508001901 77 138 2.0 6.0 0.00 0.00 0.00 57 1011.9
20260508001401 77 235 3.0 6.0 0.00 0.00 0.00 57 1011.9
20260508000851 77 210 2.0 5.0 0.00 0.00 0.00 57 1011.9
20260508000357 76 215 2.0 5.0 0.00 0.00 0.00 58 1011.9
20260507235901 77 264 3.0 5.0 0.00 0.00 0.00 57 1011.9
20260507235409 77 248 1.0 5.0 0.00 0.00 0.00 58 1011.9
20260507234854 77 256 1.0 6.0 0.00 0.00 0.00 58 1011.8
20260507234359 77 218 1.0 6.0 0.00 0.00 0.00 58 1011.8
20260507233920 77 280 2.0 5.0 0.00 0.00 0.00 58 1011.9
20260507233422 77 256 2.0 7.0 0.00 0.00 0.00 58 1011.9
20260507232859 77 132 3.0 7.0 0.00 0.00 0.00 58 1012.0
20260507231409 77 220 4.0 7.0 0.00 0.00 0.00 57 1012.1
20260507230914 78 191 3.0 7.0 0.00 0.00 0.00 57 1012.0
20260507230357 78 191 3.0 6.0 0.00 0.00 0.00 57 1012.1
20260507225424 78 252 3.0 7.0 0.00 0.00 0.00 56 1012.1
20260507224908 78 172 3.0 8.0 0.00 0.00 0.00 56 1012.1
20260507224410 79 143 2.0 8.0 0.00 0.00 0.00 56 1012.1
20260507223853 79 147 3.0 6.0 0.00 0.00 0.00 56 1012.1
20260507223355 79 200 2.0 6.0 0.00 0.00 0.00 55 1012.2
20260507222900 80 236 2.0 7.0 0.00 0.00 0.00 55 1012.2
20260507222404 80 233 3.0 8.0 0.00 0.00 0.00 54 1012.2
20260507221854 80 275 3.0 8.0 0.00 0.00 0.00 54 1012.2
20260507221358 80 270 2.0 6.0 0.00 0.00 0.00 54 1012.2
20260507220901 81 191 3.0 5.0 0.00 0.00 0.00 54 1012.2
20260507220406 81 163 2.0 5.0 0.00 0.00 0.00 54 1012.3
20260507215851 80 214 1.0 7.0 0.00 0.00 0.00 55 1012.3
20260507215356 80 153 2.0 7.0 0.00 0.00 0.00 54 1012.3
20260507214903 80 155 2.0 10.0 0.00 0.00 0.00 54 1012.4
20260507213852 81 164 3.0 7.0 0.00 0.00 0.00 53 1012.6
20260507213359 81 155 3.0 8.0 0.00 0.00 0.00 53 1012.6
20260507212923 82 207 3.0 8.0 0.00 0.00 0.00 53 1012.7
20260507212352 82 247 2.0 7.0 0.00 0.00 0.00 52 1012.7
20260507211856 82 197 3.0 7.0 0.00 0.00 0.00 52 1012.7
20260507211401 82 224 3.0 7.0 0.00 0.00 0.00 50 1012.7
20260507210907 81 170 1.0 7.0 0.00 0.00 0.00 51 1012.7
20260507210408 82 138 3.0 6.0 0.00 0.00 0.00 51 1012.8
20260507205854 81 257 1.0 5.0 0.00 0.00 0.00 52 1012.8
20260507205356 81 215 1.0 6.0 0.00 0.00 0.00 52 1012.8
20260507204859 80 169 2.0 6.0 0.00 0.00 0.00 52 1012.9
20260507204404 81 287 1.0 6.0 0.00 0.00 0.00 52 1013.0
20260507203907 81 171 3.0 6.0 0.00 0.00 0.00 52 1013.0
20260507203406 80 172 2.0 6.0 0.00 0.00 0.00 52 1013.0
20260507202850 81 269 2.0 6.0 0.00 0.00 0.00 51 1013.1
20260507201858 81 147 2.0 5.0 0.00 0.00 0.00 52 1013.1
20260507201402 80 170 2.0 5.0 0.00 0.00 0.00 52 1013.2
20260507200905 80 155 3.0 5.0 0.00 0.00 0.00 54 1013.3
20260507200428 80 253 1.0 5.0 0.00 0.00 0.00 53 1013.4
20260507195851 79 238 2.0 5.0 0.00 0.00 0.00 54 1013.5
20260507195416 79 151 2.0 5.0 0.00 0.00 0.00 55 1013.6
20260507194402 78 251 1.0 6.0 0.00 0.00 0.00 57 1013.5
20260507193850 78 167 3.0 6.0 0.00 0.00 0.00 56 1013.7
20260507193355 78 237 3.0 6.0 0.00 0.00 0.00 55 1013.7
20260507192904 77 179 3.0 6.0 0.00 0.00 0.00 56 1013.8
20260507192408 77 143 2.0 6.0 0.00 0.00 0.00 57 1013.9
20260507191854 77 148 2.0 6.0 0.00 0.00 0.00 58 1013.9
20260507191419 77 173 3.0 6.0 0.00 0.00 0.00 56 1014.0
20260507190906 77 162 3.0 6.0 0.00 0.00 0.00 56 1014.0
20260507190351 77 143 2.0 4.0 0.00 0.00 0.00 57 1014.0
20260507185855 77 124 2.0 5.0 0.00 0.00 0.00 58 1014.1
20260507185411 76 125 2.0 5.0 0.00 0.00 0.00 57 1014.0
20260507184908 76 203 1.0 4.0 0.00 0.00 0.00 58 1014.1
20260507184426 75 199 2.0 4.0 0.00 0.00 0.00 60 1014.3
20260507183921 75 136 1.0 4.0 0.00 0.00 0.00 59 1014.3
20260507183400 75 162 1.0 4.0 0.00 0.00 0.00 59 1014.5
20260507182919 75 248 2.0 4.0 0.00 0.00 0.00 60 1014.5
20260507182354 74 181 1.0 4.0 0.00 0.00 0.00 60 1014.5
20260507181854 74 157 2.0 4.0 0.00 0.00 0.00 60 1014.5
20260507181355 74 154 2.0 4.0 0.00 0.00 0.00 61 1014.5
20260507180850 74 131 2.0 4.0 0.00 0.00 0.00 60 1014.4
20260507180405 74 260 2.0 5.0 0.00 0.00 0.00 62 1014.5
20260507175906 73 125 2.0 5.0 0.00 0.00 0.00 62 1014.5
20260507175359 73 257 1.0 4.0 0.00 0.00 0.00 62 1014.5
20260507174855 73 152 1.0 4.0 0.00 0.00 0.00 63 1014.5
20260507174352 72 175 1.0 3.0 0.00 0.00 0.00 63 1014.6
20260507173853 72 284 0.0 4.0 0.00 0.00 0.00 65 1014.6
20260507173349 72 225 1.0 4.0 0.00 0.00 0.00 63 1014.7
20260507172852 71 245 1.0 4.0 0.00 0.00 0.00 64 1014.6
20260507172357 72 147 1.0 4.0 0.00 0.00 0.00 62 1014.7
20260507171921 72 259 1.0 4.0 0.00 0.00 0.00 64 1014.6
20260507171405 71 163 2.0 4.0 0.00 0.00 0.00 64 1014.6
20260507170909 70 159 0.0 2.0 0.00 0.00 0.00 66 1014.7
20260507170351 70 197 1.0 5.0 0.00 0.00 0.00 66 1014.6
20260507165855 69 160 2.0 5.0 0.00 0.00 0.00 66 1014.6
20260507165404 70 196 2.0 4.0 0.00 0.00 0.00 66 1014.6
20260507164908 69 181 1.0 4.0 0.00 0.00 0.00 67 1014.6
20260507164353 68 162 2.0 4.0 0.00 0.00 0.00 67 1014.6
20260507163858 68 145 0.0 3.0 0.00 0.00 0.00 68 1014.7
20260507163400 68 165 1.0 3.0 0.00 0.00 0.00 69 1014.8
20260507162924 68 220 1.0 3.0 0.00 0.00 0.00 70 1014.8
20260507162405 68 195 1.0 3.0 0.00 0.00 0.00 70 1014.8
20260507161852 67 172 1.0 3.0 0.00 0.00 0.00 70 1014.8
20260507161353 66 138 1.0 4.0 0.00 0.00 0.00 71 1014.8
20260507160856 67 154 2.0 4.0 0.00 0.00 0.00 70 1014.9
20260507160400 66 125 0.0 3.0 0.00 0.00 0.00 72 1014.9
20260507155902 66 169 1.0 3.0 0.00 0.00 0.00 72 1014.9
20260507155406 65 130 1.0 4.0 0.00 0.00 0.00 73 1014.9
20260507154930 65 134 1.0 4.0 0.00 0.00 0.00 72 1014.9
20260507154356 65 150 1.0 3.0 0.00 0.00 0.00 72 1014.9
20260507153904 65 188 1.0 3.0 0.00 0.00 0.00 72 1015.0
20260507153409 66 152 1.0 3.0 0.00 0.00 0.00 71 1015.0
20260507152854 66 162 1.0 2.0 0.00 0.00 0.00 72 1014.9
20260507152355 65 158 1.0 2.0 0.00 0.00 0.00 72 1015.0
20260507151901 65 220 0.0 1.0 0.00 0.00 0.00 73 1015.0
20260507151426 65 124 0.0 1.0 0.00 0.00 0.00 72 1015.0
20260507150911 65 155 0.0 1.0 0.00 0.00 0.00 73 1014.9
20260507150415 65 143 0.0 1.0 0.00 0.00 0.00 72 1014.9
20260507145858 66 147 0.0 0.0 0.00 0.00 0.00 71 1014.9
20260507145404 66 153 0.0 0.0 0.00 0.00 0.00 70 1014.9
20260507144909 66 151 0.0 0.0 0.00 0.00 0.00 71 1014.9
20260507144354 66 200 0.0 0.0 0.00 0.00 0.00 72 1014.9
20260507143402 64 229 0.0 0.0 0.00 0.00 0.00 74 1014.9
20260507142905 64 229 0.0 0.0 0.00 0.00 0.00 74 1014.8
20260507142411 65 186 0.0 0.0 0.00 0.00 0.00 74 1014.8
20260507141855 64 186 0.0 0.0 0.00 0.00 0.00 75 1014.7
20260507141358 64 186 0.0 0.0 0.00 0.00 0.00 75 1014.6
20260507140922 63 186 0.0 0.0 0.00 0.00 0.00 77 1014.6
20260507140406 63 186 0.0 0.0 0.00 0.00 0.00 79 1014.5
20260507135851 61 186 0.0 0.0 0.00 0.00 0.00 85 1014.5
20260507135357 58 186 0.0 0.0 0.00 0.00 0.00 88 1014.5
20260507134902 57 186 0.0 0.0 0.00 0.00 0.00 89 1014.5
20260507134407 56 186 0.0 0.0 0.00 0.00 0.00 91 1014.3
20260507133852 55 186 0.0 0.0 0.00 0.00 0.00 92 1014.3
20260507133355 55 186 0.0 0.0 0.00 0.00 0.00 92 1014.2
20260507132859 54 186 0.0 0.0 0.00 0.00 0.00 92 1014.2
20260507132408 54 186 0.0 0.0 0.00 0.00 0.00 91 1014.2
20260507131852 54 186 0.0 0.0 0.00 0.00 0.00 91 1014.2
20260507131354 54 186 0.0 0.0 0.00 0.00 0.00 91 1014.2
20260507130858 54 186 0.0 0.0 0.00 0.00 0.00 91 1014.2
20260507130403 54 186 0.0 0.0 0.00 0.00 0.00 91 1014.0
20260507125908 54 186 0.0 0.0 0.00 0.00 0.00 91 1014.0
20260507125354 54 186 0.0 0.0 0.00 0.00 0.00 91 1014.0
20260507124859 54 186 0.0 0.0 0.00 0.00 0.00 91 1014.0
20260507124403 54 186 0.0 0.0 0.00 0.00 0.00 91 1014.0
20260507123908 54 186 0.0 0.0 0.00 0.00 0.00 91 1014.0
20260507123413 54 186 0.0 0.0 0.00 0.00 0.00 91 1014.0
20260507122916 54 186 0.0 0.0 0.00 0.00 0.00 91 1014.1
20260507122422 54 186 0.0 0.0 0.00 0.00 0.00 90 1014.1
20260507121850 54 186 0.0 0.0 0.00 0.00 0.00 90 1014.1
20260507121355 54 186 0.0 0.0 0.00 0.00 0.00 91 1014.1
20260507120859 54 186 0.0 0.0 0.00 0.00 0.00 90 1014.0
20260507120406 54 186 0.0 0.0 0.00 0.00 0.00 90 1014.1
20260507115852 54 186 0.0 0.0 0.00 0.00 0.00 91 1014.0
20260507115358 54 186 0.0 0.0 0.00 0.00 0.00 91 1014.1
20260507114903 54 186 0.0 0.0 0.00 0.00 0.00 91 1014.1
20260507114428 54 186 0.0 0.0 0.00 0.00 0.00 90 1014.1
20260507113852 54 186 0.0 0.0 0.00 0.00 0.00 90 1014.1
20260507113357 54 186 0.0 0.0 0.00 0.00 0.00 90 1014.1
20260507112904 54 186 0.0 0.0 0.00 0.00 0.00 90 1014.1
20260507112355 54 186 0.0 0.0 0.00 0.00 0.00 90 1014.0
20260507111901 54 186 0.0 0.0 0.00 0.00 0.00 90 1014.1
20260507111425 54 186 0.0 0.0 0.00 0.00 0.00 90 1014.2
20260507110908 54 186 0.0 0.0 0.00 0.00 0.00 89 1014.2
20260507110353 54 186 0.0 0.0 0.00 0.00 0.00 89 1014.3
20260507105856 54 186 0.0 0.0 0.00 0.00 0.00 89 1014.3
20260507105401 54 186 0.0 0.0 0.00 0.00 0.00 89 1014.4
20260507104907 54 186 0.0 0.0 0.00 0.00 0.00 88 1014.4
20260507104354 55 186 0.0 0.0 0.00 0.00 0.00 88 1014.4
20260507103902 55 186 0.0 0.0 0.00 0.00 0.00 88 1014.5
20260507103406 55 186 0.0 0.0 0.00 0.00 0.00 88 1014.5
20260507102912 55 186 0.0 0.0 0.00 0.00 0.00 87 1014.4
20260507102356 55 186 0.0 0.0 0.00 0.00 0.00 87 1014.5
20260507101906 56 186 0.0 0.0 0.00 0.00 0.00 87 1014.5
20260507101353 56 186 0.0 0.0 0.00 0.00 0.00 87 1014.5
20260507100859 56 186 0.0 0.0 0.00 0.00 0.00 87 1014.5
20260507100406 56 186 0.0 0.0 0.00 0.00 0.00 87 1014.6
20260507095851 56 186 0.0 0.0 0.00 0.00 0.00 87 1014.5
20260507095356 55 186 0.0 0.0 0.00 0.00 0.00 87 1014.6
20260507094902 55 186 0.0 0.0 0.00 0.00 0.00 87 1014.6
20260507094406 56 186 0.0 0.0 0.00 0.00 0.00 87 1014.7
20260507093851 56 186 0.0 0.0 0.00 0.00 0.00 87 1014.7
20260507093357 56 186 0.0 0.0 0.00 0.00 0.00 87 1014.8
20260507092902 56 186 0.0 0.0 0.00 0.00 0.00 87 1014.8
20260507092427 56 186 0.0 0.0 0.00 0.00 0.00 87 1014.9
20260507091855 56 186 0.0 0.0 0.00 0.00 0.00 87 1014.9
20260507091401 55 186 0.0 0.0 0.00 0.00 0.00 88 1015.0
20260507090908 55 186 0.0 0.0 0.00 0.00 0.00 88 1014.9
20260507090354 55 186 0.0 0.0 0.00 0.00 0.00 88 1015.0
20260507085859 55 186 0.0 0.0 0.00 0.00 0.00 88 1015.0
20260507085407 55 186 0.0 0.0 0.00 0.00 0.00 88 1015.1
20260507084913 55 186 0.0 0.0 0.00 0.00 0.00 88 1015.2
20260507084419 55 186 0.0 0.0 0.00 0.00 0.00 87 1015.2
20260507083922 55 186 0.0 0.0 0.00 0.00 0.00 87 1015.3
20260507083405 55 186 0.0 0.0 0.00 0.00 0.00 87 1015.3
20260507082913 56 186 0.0 0.0 0.00 0.00 0.00 86 1015.3
20260507082358 56 186 0.0 0.0 0.00 0.00 0.00 86 1015.4
20260507081904 56 186 0.0 0.0 0.00 0.00 0.00 86 1015.4
20260507081354 56 186 0.0 0.0 0.00 0.00 0.00 85 1015.4
20260507080900 56 186 0.0 0.0 0.00 0.00 0.00 85 1015.4
20260507080402 56 186 0.0 0.0 0.00 0.00 0.00 85 1015.5
20260507075908 56 186 0.0 0.0 0.00 0.00 0.00 85 1015.5
20260507075354 56 186 0.0 0.0 0.00 0.00 0.00 85 1015.6
20260507073902 56 186 0.0 0.0 0.00 0.00 0.00 85 1015.5
20260507073407 56 186 0.0 0.0 0.00 0.00 0.00 85 1015.4